FENGYUN 1C DEB, 31903

Orbit data source: Space-Track

FENGYUN 1C DEB, 31903 is space debris in SSO originally from a launch on Mon, 10 May 1999 UTC launched from the Taiyaun Space Center, China (TSC). Fengyun 1C debris stems from the Chinese weather satellite Fengyun-1C, which was intentionally destroyed by a Chinese anti-satellite missile in 2007. This event dramatically increased the amount of space debris, with thousands of trackable fragments posing hazards to satellites and human spaceflight. The Fengyun 1C debris cloud has become a focal point in discussions about space sustainability and the need for international regulations to prevent the creation of new debris.

Loading next visibility...
Identifier
31903, 1999-025CLE
Orbit
SSO
Country
Flag of CNCN / PRC
Related business
Manufacturer
Unknown
Mission
Spacecraft
Bus & Motor
Unknown
Mass
Unknown
Launch date (UTC)
1999-05-10 (27 years ago)
Launch vehicle
Unknown
Launch site
Taiyaun Space Center, China (TSC)
Object type
Payload
Rocket body
Debris
Shape & HBR
Unknown shape, 0.1 m
Radar Cross Section
Small (<0.1 m²)

Expand to show TLE details & history
Last TLE update: 14 hours ago

TLE from 14 hours ago
0 FENGYUN 1C DEB
1 31903U 99025CLE 26206.52365353  .00003760  00000-0  67966-3 0  9992
2 31903  99.2768 227.1266 0127456  75.0042 286.5223 14.61954209  6621
Epoch: 2026-07-25T12:34Z
TLE epoch observation values (Epoch: 2026-07-25T12:34:03.664Z)
Latitude
-0.00006°
Longitude
95.37664°
Altitude
665.271 km
Speed
7.538 km/s
True Right ascension
15h 08m 30s
True Declination
0° 00' 00"
Sunlit
Object was in daylight at epoch
Visualization orbit readout
Latitude
Unknown
Longitude
Unknown
Altitude
Unknown
Speed
Unknown
Apparent Right ascension
Unknown
Apparent Declination
Unknown
Sunlit
N/A
Visualization observer readout
Local Sidereal Time
16:11:05
Azimuth
Unknown
Elevation
Unknown
Doppler factor
Unknown
Orbital elements
Apogee altitude
774.013 km
Perigee altitude
593.99 km
Semi-major axis
7,062.139 km
Eccentricity
0.01275
Inclination
99.2768°
RAAN
227.1266°
Arg. of periapsis
75.0042°
True anomaly
285.11584°
Mean anomaly
286.5223°
Eccentric anomaly
285.81969°
Mean motion
3.65712 °/min
Orbital period
98.44 mins
BSTAR
0.00067966
Loading maneuver chart data...
Computing Atmospheric mass density...

Documentation

Showing up to 5 results
|